EW6614 Weather Reports


Display with metric or nautical units.
time (UTC)temp
F
wind
direction
speed
MPH
gust
MPH
rain 1hr
in
rain 24hr
in
rain mn
in
humidity
%
barometer
mb
20260506050107 75 194 4.0 11.0 0.00 0.00 0.00 66 1007.9
20260506044555 75 178 5.0 12.0 0.00 0.00 0.00 55 1008.1
20260506044552 75 195 7.0 10.0 0.00 0.00 0.00 67 1008.0
20260506043056 75 194 4.0 10.0 0.00 0.00 0.00 56 1008.2
20260506043054 75 194 4.0 10.0 0.00 0.00 0.00 67 1008.2
20260506041553 75 205 6.0 14.0 0.00 0.00 0.00 56 1008.2
20260506041551 75 205 4.0 13.0 0.00 0.00 0.00 67 1008.0
20260506040058 76 166 2.0 11.0 0.00 0.00 0.00 56 1008.1
20260506040056 76 167 3.0 10.0 0.00 0.00 0.00 67 1007.9
20260506034612 76 194 5.0 13.0 0.00 0.00 0.00 56 1007.9
20260506034551 76 192 5.0 13.0 0.00 0.00 0.00 67 1007.8
20260506033054 76 206 4.0 10.0 0.00 0.00 0.00 55 1008.1
20260506033049 76 210 5.0 10.0 0.00 0.00 0.00 67 1008.0
20260506031556 76 240 4.0 11.0 0.00 0.00 0.00 55 1007.9
20260506031551 76 239 4.0 10.0 0.00 0.00 0.00 67 1007.8
20260506030054 76 184 4.0 9.0 0.00 0.00 0.00 56 1007.6
20260506024556 76 195 6.0 14.0 0.00 0.00 0.00 55 1007.3
20260506023101 76 185 4.0 10.0 0.00 0.00 0.00 56 1007.0
20260506023046 76 185 5.0 8.0 0.00 0.00 0.00 67 1006.7
20260506021559 76 204 5.0 10.0 0.00 0.00 0.00 67 1006.7
20260506021553 76 204 5.0 11.0 0.00 0.00 0.00 56 1006.9
20260506020056 76 196 4.0 9.0 0.00 0.00 0.00 56 1006.9
20260506020045 76 196 3.0 9.0 0.00 0.00 0.00 67 1006.6
20260506014554 77 170 3.0 10.0 0.00 0.00 0.00 56 1006.5
20260506014544 77 171 3.0 10.0 0.00 0.00 0.00 68 1006.3
20260506013108 77 186 3.0 11.0 0.00 0.00 0.00 56 1006.4
20260506013053 77 184 3.0 10.0 0.00 0.00 0.00 68 1006.1
20260506011559 77 184 4.0 9.0 0.00 0.00 0.00 57 1006.2
20260506011552 77 184 4.0 7.0 0.00 0.00 0.00 69 1005.9
20260506010119 77 196 5.0 10.0 0.00 0.00 0.00 58 1005.9
20260506010042 77 200 5.0 10.0 0.00 0.00 0.00 70 1005.7
20260506004553 78 207 4.0 10.0 0.00 0.00 0.00 59 1005.7
20260506004541 78 207 4.0 8.0 0.00 0.00 0.00 70 1005.4
20260506003051 78 194 5.0 14.0 0.00 0.00 0.00 59 1005.5
20260506003041 78 196 5.0 14.0 0.00 0.00 0.00 70 1005.1
20260506001602 79 185 5.0 12.0 0.00 0.00 0.00 59 1005.5
20260506001543 79 185 6.0 11.0 0.00 0.00 0.00 70 1005.2
20260506000055 80 178 5.0 12.0 0.00 0.00 0.00 58 1005.6
20260506000045 80 171 6.0 11.0 0.00 0.00 0.00 70 1005.2
20260505234555 80 185 4.0 15.0 0.00 0.00 0.00 57 1005.6
20260505234539 80 152 5.0 9.0 0.00 0.00 0.00 69 1005.3
20260505233139 80 196 6.0 10.0 0.00 0.00 0.00 69 1005.3
20260505233105 80 176 6.0 11.0 0.00 0.00 0.00 57 1005.6
20260505231558 81 175 4.0 12.0 0.00 0.00 0.00 57 1005.7
20260505231550 81 158 4.0 11.0 0.00 0.00 0.00 68 1005.3
20260505230056 81 193 6.0 13.0 0.00 0.00 0.00 56 1005.8
20260505230038 81 201 5.0 13.0 0.00 0.00 0.00 68 1005.5
20260505224554 81 204 7.0 15.0 0.00 0.00 0.00 55 1005.8
20260505224537 82 150 6.0 14.0 0.00 0.00 0.00 67 1005.4
20260505223054 82 175 4.0 12.0 0.00 0.00 0.00 55 1005.7
20260505223036 82 175 5.0 10.0 0.00 0.00 0.00 66 1005.4
20260505221557 81 130 5.0 15.0 0.00 0.00 0.00 54 1005.7
20260505221537 81 214 7.0 13.0 0.00 0.00 0.00 66 1005.4
20260505220055 82 218 8.0 16.0 0.00 0.00 0.00 54 1005.7
20260505220037 82 214 7.0 15.0 0.00 0.00 0.00 65 1005.4
20260505214610 83 175 7.0 15.0 0.00 0.00 0.00 54 1005.6
20260505214556 83 177 8.0 14.0 0.00 0.00 0.00 65 1005.4
20260505213057 82 175 7.0 16.0 0.00 0.00 0.00 54 1005.6
20260505213031 82 182 7.0 17.0 0.00 0.00 0.00 66 1005.4
20260505211553 82 199 6.0 15.0 0.00 0.00 0.00 54 1005.7
20260505211533 82 187 7.0 15.0 0.00 0.00 0.00 66 1005.6
20260505210054 82 156 9.0 24.0 0.00 0.00 0.00 54 1005.8
20260505210028 82 173 9.0 22.0 0.00 0.00 0.00 65 1005.7
20260505204557 82 182 8.0 18.0 0.00 0.00 0.00 54 1006.0
20260505204525 82 171 8.0 18.0 0.00 0.00 0.00 66 1006.0
20260505203052 82 163 9.0 19.0 0.00 0.00 0.00 54 1006.5
20260505203023 82 183 10.0 18.0 0.00 0.00 0.00 65 1006.2
20260505201557 82 144 7.0 26.0 0.00 0.00 0.00 54 1006.5
20260505201520 82 123 6.0 25.0 0.00 0.00 0.00 66 1006.4
20260505200054 81 136 6.0 17.0 0.00 0.00 0.00 54 1006.8
20260505200019 81 187 6.0 16.0 0.00 0.00 0.00 65 1006.5
20260505194557 80 198 8.0 16.0 0.00 0.00 0.00 54 1006.9
20260505194516 80 171 8.0 14.0 0.00 0.00 0.00 65 1006.8
20260505193055 81 152 4.0 11.0 0.00 0.00 0.00 53 1007.0
20260505193015 81 189 5.0 17.0 0.00 0.00 0.00 65 1006.9
20260505191607 79 188 7.0 15.0 0.00 0.00 0.00 53 1007.2
20260505191515 79 169 8.0 15.0 0.00 0.00 0.00 65 1007.3
20260505190023 79 184 6.0 18.0 0.00 0.00 0.00 65 1007.2
20260505184604 79 202 8.0 16.0 0.00 0.00 0.00 52 1007.3
20260505184512 79 130 9.0 13.0 0.00 0.00 0.00 64 1007.3
20260505183124 78 160 7.0 16.0 0.00 0.00 0.00 52 1007.5
20260505183009 78 201 7.0 17.0 0.00 0.00 0.00 64 1007.6
20260505181558 78 240 6.0 14.0 0.00 0.00 0.00 52 1007.4
20260505181506 78 155 6.0 12.0 0.00 0.00 0.00 64 1007.5
20260505180059 77 184 7.0 15.0 0.00 0.00 0.00 52 1007.5
20260505180008 77 184 6.0 14.0 0.00 0.00 0.00 64 1007.4
20260505174555 77 182 7.0 13.0 0.00 0.00 0.00 52 1007.6
20260505174507 77 171 7.0 11.0 0.00 0.00 0.00 63 1007.7
20260505173059 76 157 6.0 11.0 0.00 0.00 0.00 52 1007.7
20260505173002 77 196 6.0 10.0 0.00 0.00 0.00 63 1007.7
20260505171601 76 200 4.0 11.0 0.00 0.00 0.00 52 1007.8
20260505171559 76 201 5.0 10.0 0.00 0.00 0.00 63 1007.8
20260505170056 75 171 4.0 9.0 0.00 0.00 0.00 62 1007.9
20260505170054 75 171 4.0 12.0 0.00 0.00 0.00 51 1007.8
20260505164601 74 167 6.0 10.0 0.00 0.00 0.00 62 1008.0
20260505164555 75 167 4.0 9.0 0.00 0.00 0.00 51 1007.9
20260505163056 74 207 4.0 12.0 0.00 0.00 0.00 51 1008.0
20260505163050 74 207 4.0 8.0 0.00 0.00 0.00 62 1007.9
20260505161619 74 0 2.0 9.0 0.00 0.00 0.00 51 1008.3
20260505161547 74 182 2.0 9.0 0.00 0.00 0.00 62 1008.1
20260505153104 73 171 3.0 14.0 0.00 0.00 0.00 51 1007.8
20260505153035 73 159 3.0 12.0 0.00 0.00 0.00 62 1007.8
20260505151611 72 192 5.0 10.0 0.00 0.00 0.00 50 1008.0
20260505151532 72 183 5.0 9.0 0.00 0.00 0.00 62 1007.9
20260505124555 69 360 7.0 14.0 0.00 0.00 0.00 54 1007.4
20260505124523 69 360 6.0 12.0 0.00 0.00 0.00 65 1007.6
20260505123054 69 360 4.0 14.0 0.00 0.00 0.00 54 1007.2
20260505123027 69 360 5.0 14.0 0.00 0.00 0.00 65 1007.4
20260505121556 69 360 5.0 9.0 0.00 0.00 0.00 54 1007.4
20260505121521 69 360 4.0 9.0 0.00 0.00 0.00 65 1007.6
20260505120110 69 360 3.0 10.0 0.00 0.00 0.00 54 1007.3
20260505120029 69 360 4.0 10.0 0.00 0.00 0.00 65 1007.5
20260505114553 69 360 4.0 14.0 0.00 0.00 0.00 54 1007.2
20260505114519 69 360 5.0 14.0 0.00 0.00 0.00 65 1007.5
20260505113052 69 360 5.0 12.0 0.00 0.00 0.00 54 1007.2
20260505113012 69 360 7.0 14.0 0.00 0.00 0.00 65 1007.2
20260505111555 69 360 6.0 13.0 0.00 0.00 0.00 54 1007.1
20260505111516 69 360 6.0 13.0 0.00 0.00 0.00 65 1007.0
20260505101554 67 360 3.0 9.0 0.00 0.00 0.00 55 1007.0
20260505101511 67 360 3.0 9.0 0.00 0.00 0.00 67 1007.1
20260505100057 67 360 3.0 10.0 0.00 0.00 0.00 56 1007.2
20260505100004 67 360 2.0 10.0 0.00 0.00 0.00 67 1007.3
20260505094553 67 360 4.0 13.0 0.00 0.00 0.00 56 1007.4
20260505094501 67 360 4.0 10.0 0.00 0.00 0.00 68 1007.5
20260505093103 67 360 5.0 11.0 0.00 0.00 0.00 68 1007.7
20260505093057 67 360 5.0 11.0 0.00 0.00 0.00 57 1007.6
20260505091607 67 360 5.0 11.0 0.00 0.00 0.00 68 1007.9
20260505091553 67 360 4.0 9.0 0.00 0.00 0.00 57 1007.8
20260505090058 67 360 3.0 10.0 0.00 0.00 0.00 69 1007.9
20260505090054 67 360 4.0 10.0 0.00 0.00 0.00 57 1007.8
20260505084557 67 360 3.0 11.0 0.00 0.00 0.00 69 1007.9
20260505084553 67 360 2.0 11.0 0.00 0.00 0.00 58 1007.8
20260505083100 67 360 2.0 10.0 0.00 0.00 0.00 70 1008.0
20260505083054 67 360 3.0 10.0 0.00 0.00 0.00 58 1008.0
20260505081557 68 360 4.0 11.0 0.00 0.00 0.00 59 1008.0
20260505081554 68 360 5.0 11.0 0.00 0.00 0.00 70 1008.1
20260505080059 68 360 5.0 10.0 0.00 0.00 0.00 59 1008.2
20260505080051 68 360 5.0 12.0 0.00 0.00 0.00 70 1008.3
20260505074602 68 360 5.0 9.0 0.00 0.00 0.00 59 1008.3
20260505074549 68 360 5.0 9.0 0.00 0.00 0.00 71 1008.4
20260505073112 68 360 5.0 12.0 0.00 0.00 0.00 59 1008.2
20260505073053 68 360 5.0 12.0 0.00 0.00 0.00 71 1008.2
20260505071602 68 360 4.0 10.0 0.00 0.00 0.00 59 1008.3
20260505071557 68 360 4.0 10.0 0.00 0.00 0.00 71 1008.3
20260505070045 67 360 3.0 10.0 0.00 0.00 0.00 71 1008.5
20260505064601 68 360 3.0 12.0 0.00 0.00 0.00 60 1008.6
20260505064543 68 360 2.0 10.0 0.00 0.00 0.00 71 1008.7
20260505063100 68 360 6.0 13.0 0.00 0.00 0.00 60 1008.7
20260505063041 68 360 6.0 13.0 0.00 0.00 0.00 72 1008.8
20260505061559 68 360 6.0 14.0 0.00 0.00 0.00 60 1008.9
20260505061538 68 360 7.0 14.0 0.00 0.00 0.00 72 1008.9
20260505060104 68 360 4.0 11.0 0.00 0.00 0.00 60 1008.9
20260505060045 68 360 4.0 9.0 0.00 0.00 0.00 71 1008.8
20260505054626 68 360 4.0 12.0 0.00 0.00 0.00 59 1009.2
20260505054535 68 360 3.0 12.0 0.00 0.00 0.00 71 1009.1
20260505053108 68 360 4.0 16.0 0.00 0.00 0.00 59 1009.1
20260505053032 68 360 5.0 16.0 0.00 0.00 0.00 71 1009.0